Regional Weather Roundup
Issued by NWS

Home | Current Version | Previous Version | Text Only | Print | Product List | Glossary On
Versions: 1 2 3 4 5 6 7 8 9 10 11 12 13 14 15 16 17 18 19 20 21 22 23 24 25 26 27 28 29 30 31 32 33 34 35 36 37 38 39 40 41 42 43 44 45 46 47 48 49 50
920
ASUS43 KTOP 241608
RWRKS

WEATHER ROUNDUP FOR KANSAS
NATIONAL WEATHER SERVICE GOODLAND KS
1100 AM CDT WED MAY 24 2017

NOTE:  "FAIR" INDICATES FEW OR NO CLOUDS BELOW 12,000 FEET WITH NO
SIGNIFICANT WEATHER AND/OR OBSTRUCTIONS TO VISIBILITY.

KSZ001>006-013>018-027>032-041>047-241700-
NORTHWEST KANSAS

CITY           SKY/WX    TMP DP  RH WIND       PRES   REMARKS
GOODLAND       FAIR      57  40  52 VRB7      29.82F
HILL CITY      FAIR      57  39  51 NW6       29.84F
RUSSELL        PTSUNNY   56  42  59 NW14      29.82F
$$

KSZ061>065-074>080-084>089-241700-
SOUTHWEST KANSAS

CITY           SKY/WX    TMP DP  RH WIND       PRES   REMARKS
DODGE CITY     FAIR      59  41  51 N5        29.85F
ELKHART          N/A     64  38  38 SE5         N/A
GARDEN CITY    FAIR      59  36  42 VRB3      29.84F
GREAT BEND     PTSUNNY   55  43  63 N10       29.84F
LIBERAL        FAIR      60  41  49 VRB5      29.87F
PRATT          FAIR      55  39  54 N7G17     29.85S
$$

KSZ066>073-081>083-090>101-241700-
SOUTHEAST KANSAS

CITY           SKY/WX    TMP DP  RH WIND       PRES   REMARKS
CHANUTE        PTSUNNY   62  48  60 NW13G24   29.75F
COFFEYVILLE    FAIR      63  51  65 N13G21    29.76F
HUTCHINSON     PTSUNNY   58  44  60 N10       29.82F
MEDICINE LODGE   N/A     60  42  51 N16       29.83F
NEWTON         PTSUNNY   56  44  64 NW14      29.81F
PARSONS        PTSUNNY   63  49  60 N13       29.76F
WICHITA INTL   PTSUNNY   60  45  57 NW16G23   29.81F
WICHITA JABRA  PTSUNNY   58  45  62 NW15      29.81S
WICHITA MCCONL PTSUNNY   59  45  58 NW14      29.81S
WINFIELD       PTSUNNY   58  45  62 NW15      29.82F
$$

KSZ007>012-019>026-033>040-048>060-102>105-241700-
NORTHEAST KANSAS

CITY           SKY/WX    TMP DP  RH WIND       PRES   REMARKS
CONCORDIA      FAIR      59  47  64 N8        29.79F
EMPORIA        FAIR      58  46  64 N14       29.76F
LAWRENCE       FAIR      61  52  72 NW16      29.72F
MANHATTAN      FAIR      62  46  55 N9        29.77F
MARYSVILLE     FAIR      61  48  63 N12       29.76F
OLATHE IND     CLOUDY    58  49  72 NW15G28   29.72S
OLATHE EXE     CLOUDY    56  50  80 N16       29.71S
SALINA         FAIR      60  46  59 N13       29.81F
TOPEKA BILLARD PTSUNNY   61  51  70 N12       29.73F
TOPEKA FORBES  FAIR      62  51  67 N14G24    29.73F
$$




USA.gov is the U.S. government's official web portal to all federal, state and local government web resources and services.